Location: Observatory
(52.1446°N, 0.4624°W)
Time: 05:53:23
(UTC+00:00)

ISS - Pass Details

Date: 09 December 2019
Orbit: 411 x 421 km, 51.6° (Epoch: 15 December)

Event Time Altitude Azimuth Distance (km) Brightness Sun altitude
Rises 16:33:30 0° 281° (WNW) 2,357 0.9 -6.4°
Reaches altitude 10° 16:35:38 10° 276° (W) 1,494 0.0 -6.7°
Maximum altitude 16:38:52 47° 201° (SSW) 559 -2.7 -7.1°
Drops below altitude 10° 16:42:07 10° 126° (SE) 1,495 -1.2 -7.6°
Sets 16:44:15 0° 121° (ESE) 2,358 -0.3 -7.8°
